Year,Month,Day,Hour,Minute,Value (Times are PST for temperature in C)
2019,11,25,00,00,6.20
2019,11,25,00,01,6.20
2019,11,25,00,02,6.30
2019,11,25,00,03,6.40
2019,11,25,00,04,6.50
2019,11,25,00,05,6.50
2019,11,25,00,06,6.60
2019,11,25,00,07,6.60
2019,11,25,00,08,6.60
2019,11,25,00,09,6.60
2019,11,25,00,10,6.60
2019,11,25,00,11,6.60
2019,11,25,00,12,6.60
2019,11,25,00,13,6.60
2019,11,25,00,14,6.50
2019,11,25,00,15,6.50
2019,11,25,00,16,6.50
2019,11,25,00,17,6.40
2019,11,25,00,18,6.40
2019,11,25,00,19,6.30
2019,11,25,00,20,6.30
2019,11,25,00,21,6.30
2019,11,25,00,22,6.20
2019,11,25,00,23,6.20
2019,11,25,00,24,6.20
2019,11,25,00,25,6.20
2019,11,25,00,26,6.10
2019,11,25,00,27,6.10
2019,11,25,00,28,6.10
2019,11,25,00,29,6.10
2019,11,25,00,30,6.10
2019,11,25,00,31,6.10
2019,11,25,00,32,6.10
2019,11,25,00,33,6.10
2019,11,25,00,34,6.10
2019,11,25,00,35,6.10
2019,11,25,00,36,6.10
2019,11,25,00,37,6.10
2019,11,25,00,38,6.10
2019,11,25,00,39,6.20
2019,11,25,00,40,6.20
2019,11,25,00,41,6.20
2019,11,25,00,42,6.20
2019,11,25,00,43,6.20
2019,11,25,00,44,6.20
2019,11,25,00,45,6.20
2019,11,25,00,46,6.30
2019,11,25,00,47,6.30
2019,11,25,00,48,6.30
2019,11,25,00,49,6.30
2019,11,25,00,50,6.30
2019,11,25,00,51,6.30
2019,11,25,00,52,6.20
2019,11,25,00,53,6.20
2019,11,25,00,54,6.20
2019,11,25,00,55,6.20
2019,11,25,00,56,6.20
2019,11,25,00,57,6.20
2019,11,25,00,58,6.20
2019,11,25,00,59,6.10
2019,11,25,01,00,6.10
2019,11,25,01,01,6.10
2019,11,25,01,02,6.10
2019,11,25,01,03,6.10
2019,11,25,01,04,6.10
2019,11,25,01,05,6.10
2019,11,25,01,06,6.10
2019,11,25,01,07,6.10
2019,11,25,01,08,6.10
2019,11,25,01,09,6.10
2019,11,25,01,10,6.10
2019,11,25,01,11,6.10
2019,11,25,01,12,6.10
2019,11,25,01,13,6.00
2019,11,25,01,14,6.00
2019,11,25,01,15,6.00
2019,11,25,01,16,6.00
2019,11,25,01,17,5.90
2019,11,25,01,18,5.90
2019,11,25,01,19,5.90
2019,11,25,01,20,5.80
2019,11,25,01,21,5.80
2019,11,25,01,22,5.80
2019,11,25,01,23,5.80
2019,11,25,01,24,5.70
2019,11,25,01,25,5.70
2019,11,25,01,26,5.70
2019,11,25,01,27,5.60
2019,11,25,01,28,5.60
2019,11,25,01,29,5.60
2019,11,25,01,30,5.60
2019,11,25,01,31,5.50
2019,11,25,01,32,5.50
2019,11,25,01,33,5.50
2019,11,25,01,34,5.40
2019,11,25,01,35,5.40
2019,11,25,01,36,5.40
2019,11,25,01,37,5.40
2019,11,25,01,38,5.40
2019,11,25,01,39,5.40
2019,11,25,01,40,5.40
2019,11,25,01,41,5.40
2019,11,25,01,42,5.40
2019,11,25,01,43,5.40
2019,11,25,01,44,5.30
2019,11,25,01,45,5.30
2019,11,25,01,46,5.30
2019,11,25,01,47,5.30
2019,11,25,01,48,5.30
2019,11,25,01,49,5.30
2019,11,25,01,50,5.30
2019,11,25,01,51,5.30
2019,11,25,01,52,5.30
2019,11,25,01,53,5.20
2019,11,25,01,54,5.20
2019,11,25,01,55,5.20
2019,11,25,01,56,5.20
2019,11,25,01,57,5.20
2019,11,25,01,58,5.20
2019,11,25,01,59,5.20
2019,11,25,02,00,5.10
2019,11,25,02,01,5.10
2019,11,25,02,02,5.10
2019,11,25,02,03,5.10
2019,11,25,02,04,5.00
2019,11,25,02,05,5.00
2019,11,25,02,06,5.00
2019,11,25,02,07,5.00
2019,11,25,02,08,4.90
2019,11,25,02,09,4.90
2019,11,25,02,10,4.90
2019,11,25,02,11,4.90
2019,11,25,02,12,4.90
2019,11,25,02,13,4.90
2019,11,25,02,14,4.90
2019,11,25,02,15,4.90
2019,11,25,02,16,4.80
2019,11,25,02,17,4.80
2019,11,25,02,18,4.80
2019,11,25,02,19,4.80
2019,11,25,02,20,4.80
2019,11,25,02,21,4.80
2019,11,25,02,22,4.80
2019,11,25,02,23,4.80
2019,11,25,02,24,4.80
2019,11,25,02,25,4.80
2019,11,25,02,26,4.80
2019,11,25,02,27,4.80
2019,11,25,02,28,4.80
2019,11,25,02,29,4.80
2019,11,25,02,30,4.70
2019,11,25,02,31,4.70
2019,11,25,02,32,4.70
2019,11,25,02,33,4.70
2019,11,25,02,34,4.70
2019,11,25,02,35,4.70
2019,11,25,02,36,4.70
2019,11,25,02,37,4.70
2019,11,25,02,38,4.70
2019,11,25,02,39,4.70
2019,11,25,02,40,4.60
2019,11,25,02,41,4.60
2019,11,25,02,42,4.60
2019,11,25,02,43,4.60
2019,11,25,02,44,4.60
2019,11,25,02,45,4.60
2019,11,25,02,46,4.60
2019,11,25,02,47,4.50
2019,11,25,02,48,4.50
2019,11,25,02,49,4.50
2019,11,25,02,50,4.40
2019,11,25,02,51,4.40
2019,11,25,02,52,4.40
2019,11,25,02,53,4.40
2019,11,25,02,54,4.40
2019,11,25,02,55,4.40
2019,11,25,02,56,4.40
2019,11,25,02,57,4.40
2019,11,25,02,58,4.30
2019,11,25,02,59,4.30
2019,11,25,03,00,4.30
2019,11,25,03,01,4.30
2019,11,25,03,02,4.30
2019,11,25,03,03,4.30
2019,11,25,03,04,4.30
2019,11,25,03,05,4.30
2019,11,25,03,06,4.20
2019,11,25,03,07,4.20
2019,11,25,03,08,4.20
2019,11,25,03,09,4.20
2019,11,25,03,10,4.20
2019,11,25,03,11,4.20
2019,11,25,03,12,4.20
2019,11,25,03,13,4.10
2019,11,25,03,14,4.10
2019,11,25,03,15,4.10
2019,11,25,03,16,4.10
2019,11,25,03,17,4.10
2019,11,25,03,18,4.10
2019,11,25,03,19,4.10
2019,11,25,03,20,4.00
2019,11,25,03,21,4.00
2019,11,25,03,22,4.00
2019,11,25,03,23,3.90
2019,11,25,03,24,3.90
2019,11,25,03,25,3.90
2019,11,25,03,26,3.90
2019,11,25,03,27,3.90
2019,11,25,03,28,3.80
2019,11,25,03,29,3.80
2019,11,25,03,30,3.80
2019,11,25,03,31,3.80
2019,11,25,03,32,3.80
2019,11,25,03,33,3.80
2019,11,25,03,34,3.80
2019,11,25,03,35,3.70
2019,11,25,03,36,3.70
2019,11,25,03,37,3.70
2019,11,25,03,38,3.70
2019,11,25,03,39,3.70
2019,11,25,03,40,3.70
2019,11,25,03,41,3.70
2019,11,25,03,42,3.70
2019,11,25,03,43,3.70
2019,11,25,03,44,3.70
2019,11,25,03,45,3.70
2019,11,25,08,16,-0.20
2019,11,25,08,17,-0.10
2019,11,25,08,18,-0.10
2019,11,25,08,19,-0.10
2019,11,25,08,20,0.00
2019,11,25,08,21,0.00
2019,11,25,08,22,0.10
2019,11,25,08,23,0.10
2019,11,25,08,24,0.10
2019,11,25,08,25,0.20
2019,11,25,08,26,0.20
2019,11,25,08,27,0.20
2019,11,25,08,28,0.30
2019,11,25,08,29,0.30
2019,11,25,08,30,0.30
2019,11,25,08,31,0.30
2019,11,25,08,32,0.40
2019,11,25,08,33,0.40
2019,11,25,08,34,0.50
2019,11,25,08,35,0.60
2019,11,25,08,36,0.60
2019,11,25,08,37,0.70
2019,11,25,08,38,0.80
2019,11,25,08,39,0.80
2019,11,25,08,40,0.90
2019,11,25,08,41,0.90
2019,11,25,08,42,0.90
2019,11,25,08,43,0.90
2019,11,25,08,44,0.90
2019,11,25,08,45,0.90
2019,11,25,08,46,0.90
2019,11,25,08,47,0.90
2019,11,25,08,48,1.00
2019,11,25,08,49,1.00
2019,11,25,08,50,1.10
2019,11,25,08,51,1.20
2019,11,25,08,52,1.20
2019,11,25,08,53,1.30
2019,11,25,08,54,1.30
2019,11,25,08,55,1.40
2019,11,25,08,56,1.40
2019,11,25,08,57,1.50
2019,11,25,08,58,1.50
2019,11,25,08,59,1.60
2019,11,25,09,00,1.60
2019,11,25,09,01,1.60
2019,11,25,09,02,1.70
2019,11,25,09,03,1.70
2019,11,25,09,04,1.80
2019,11,25,09,05,1.90
2019,11,25,09,06,1.90
2019,11,25,09,07,2.00
2019,11,25,09,08,2.00
2019,11,25,09,09,2.10
2019,11,25,09,10,2.20
2019,11,25,09,11,2.20
2019,11,25,09,12,2.30
2019,11,25,09,13,2.30
2019,11,25,09,14,2.30
2019,11,25,09,15,2.30
2019,11,25,09,16,2.30
2019,11,25,09,17,2.30
2019,11,25,09,18,2.30
2019,11,25,09,19,2.40
2019,11,25,09,20,2.40
2019,11,25,09,21,2.40
2019,11,25,09,22,2.40
2019,11,25,09,23,2.40
2019,11,25,09,24,2.50
2019,11,25,09,25,2.50
2019,11,25,09,26,2.60
2019,11,25,09,27,2.60
2019,11,25,09,28,2.60
2019,11,25,09,29,2.70
2019,11,25,09,30,2.70
2019,11,25,09,31,2.70
2019,11,25,09,32,2.80
2019,11,25,09,33,2.90
2019,11,25,09,34,3.00
2019,11,25,09,35,3.10
2019,11,25,09,36,3.20
2019,11,25,09,37,3.30
2019,11,25,09,38,3.30
2019,11,25,09,39,3.40
2019,11,25,09,40,3.40
2019,11,25,09,41,3.50
2019,11,25,09,42,3.50
2019,11,25,09,43,3.60
2019,11,25,09,44,3.70
2019,11,25,09,45,3.70
2019,11,25,09,46,3.80
2019,11,25,09,47,3.80
2019,11,25,09,48,3.90
2019,11,25,09,49,3.90
2019,11,25,09,50,4.00
2019,11,25,09,51,4.00
2019,11,25,09,52,4.10
2019,11,25,09,53,4.10
2019,11,25,09,54,4.20
2019,11,25,09,55,4.20
2019,11,25,09,56,4.30
2019,11,25,09,57,4.40
2019,11,25,09,58,4.50
2019,11,25,09,59,4.50
2019,11,25,10,00,4.50
2019,11,25,10,01,4.60
2019,11,25,10,02,4.70
2019,11,25,10,03,4.70
2019,11,25,10,04,4.80
2019,11,25,10,05,4.90
2019,11,25,10,06,5.00
2019,11,25,10,07,5.00
2019,11,25,10,08,5.10
2019,11,25,10,09,5.10
2019,11,25,10,10,5.20
2019,11,25,10,11,5.20
2019,11,25,10,12,5.20
2019,11,25,10,13,5.20
2019,11,25,10,14,5.30
2019,11,25,10,15,5.30
2019,11,25,10,16,5.30
2019,11,25,10,17,5.40
2019,11,25,10,18,5.50
2019,11,25,10,19,5.50
2019,11,25,10,20,5.60
2019,11,25,10,21,5.60
2019,11,25,10,22,5.70
2019,11,25,10,23,5.70
2019,11,25,10,24,5.80
2019,11,25,10,25,5.80
2019,11,25,10,26,5.90
2019,11,25,10,27,5.90
2019,11,25,10,28,6.00
2019,11,25,10,29,6.10
2019,11,25,10,30,6.10
2019,11,25,10,31,6.20
2019,11,25,10,32,6.20
2019,11,25,10,33,6.30
2019,11,25,10,34,6.30
2019,11,25,10,35,6.40
2019,11,25,10,36,6.40
2019,11,25,10,37,6.50
2019,11,25,10,38,6.50
2019,11,25,10,39,6.60
2019,11,25,10,40,6.60
2019,11,25,10,41,6.70
2019,11,25,10,42,6.70
2019,11,25,10,43,6.80
2019,11,25,10,44,6.80
2019,11,25,10,45,6.80
2019,11,25,10,46,6.90
2019,11,25,10,47,6.90
2019,11,25,10,48,7.00
2019,11,25,10,49,7.00
2019,11,25,10,50,7.00
2019,11,25,10,51,7.00
2019,11,25,10,52,7.00
2019,11,25,10,53,7.00
2019,11,25,10,54,7.00
2019,11,25,10,55,7.10
2019,11,25,10,56,7.10
2019,11,25,10,57,7.20
2019,11,25,10,58,7.20
2019,11,25,10,59,7.30
2019,11,25,11,00,7.30
2019,11,25,11,01,7.30
2019,11,25,11,02,7.30
2019,11,25,11,03,7.30
2019,11,25,11,04,7.30
2019,11,25,11,05,7.30
2019,11,25,11,06,7.30
2019,11,25,11,07,7.30
2019,11,25,11,08,7.30
2019,11,25,11,09,7.30
2019,11,25,11,10,7.30
2019,11,25,11,11,7.30
2019,11,25,11,12,7.30
2019,11,25,11,13,7.40
2019,11,25,11,14,7.40
2019,11,25,11,15,7.40
2019,11,25,11,16,7.40
2019,11,25,11,17,7.40
2019,11,25,11,18,7.40
2019,11,25,11,19,7.40
2019,11,25,11,20,7.50
2019,11,25,11,21,7.50
2019,11,25,11,22,7.50
2019,11,25,11,23,7.50
2019,11,25,11,24,7.60
2019,11,25,11,25,7.60
2019,11,25,11,26,7.60
2019,11,25,11,27,7.70
2019,11,25,11,28,7.70
2019,11,25,11,29,7.80
2019,11,25,11,30,7.90
2019,11,25,11,31,7.90
2019,11,25,11,32,8.00
2019,11,25,11,33,8.10
2019,11,25,11,34,8.10
2019,11,25,11,35,8.10
2019,11,25,11,36,8.10
2019,11,25,11,37,8.10
2019,11,25,11,38,8.20
2019,11,25,11,39,8.20
2019,11,25,11,40,8.30
2019,11,25,11,41,8.30
2019,11,25,11,42,8.40
2019,11,25,11,43,8.40
2019,11,25,11,44,8.40
2019,11,25,11,45,8.40
2019,11,25,11,46,8.40
2019,11,25,11,47,8.30
2019,11,25,11,48,8.30
2019,11,25,11,49,8.30
2019,11,25,11,50,8.30
2019,11,25,11,51,8.30
2019,11,25,11,52,8.30
2019,11,25,11,53,8.30
2019,11,25,11,54,8.30
2019,11,25,11,55,8.30
2019,11,25,11,56,8.30
2019,11,25,11,57,8.30
2019,11,25,11,58,8.30
2019,11,25,11,59,8.30
2019,11,25,12,00,8.40
2019,11,25,12,01,8.40
2019,11,25,12,02,8.40
2019,11,25,12,03,8.50
2019,11,25,12,04,8.60
2019,11,25,12,05,8.60
2019,11,25,12,06,8.60
2019,11,25,12,07,8.60
2019,11,25,12,08,8.60
2019,11,25,12,09,8.60
2019,11,25,12,10,8.60
2019,11,25,12,11,8.60
2019,11,25,12,12,8.50
2019,11,25,12,13,8.50
2019,11,25,12,14,8.40
2019,11,25,12,15,8.40
2019,11,25,12,16,8.40
2019,11,25,12,17,8.40
2019,11,25,12,18,8.40
2019,11,25,12,19,8.40
2019,11,25,12,20,8.40
2019,11,25,12,21,8.40
2019,11,25,12,22,8.40
2019,11,25,12,23,8.50
2019,11,25,12,24,8.50
2019,11,25,12,25,8.60
2019,11,25,12,26,8.60
2019,11,25,12,27,8.60
2019,11,25,12,28,8.60
2019,11,25,12,29,8.50
2019,11,25,12,30,8.50
2019,11,25,12,31,8.50
2019,11,25,12,32,8.50
2019,11,25,12,33,8.50
2019,11,25,12,34,8.50
2019,11,25,12,35,8.50
2019,11,25,12,36,8.60
2019,11,25,12,37,8.60
2019,11,25,12,38,8.60
2019,11,25,12,39,8.70
2019,11,25,12,40,8.70
2019,11,25,12,41,8.80
2019,11,25,12,42,8.80
2019,11,25,12,43,8.90
2019,11,25,12,44,8.90
2019,11,25,12,45,9.00
2019,11,25,12,46,9.00
2019,11,25,12,47,9.00
2019,11,25,12,48,8.90
2019,11,25,12,49,8.90
2019,11,25,12,50,8.80
2019,11,25,12,51,8.80
2019,11,25,12,52,8.80
2019,11,25,12,53,8.70
2019,11,25,12,54,8.70
2019,11,25,12,55,8.60
2019,11,25,12,56,8.60
2019,11,25,12,57,8.60
2019,11,25,12,58,8.50
2019,11,25,12,59,8.50
2019,11,25,13,00,8.40
2019,11,25,13,01,8.40
2019,11,25,13,02,8.40
2019,11,25,13,03,8.40
2019,11,25,13,04,8.40
2019,11,25,13,05,8.40
2019,11,25,13,06,8.40
2019,11,25,13,07,8.40
2019,11,25,13,08,8.40
2019,11,25,13,09,8.30
2019,11,25,13,10,8.30
2019,11,25,13,11,8.30
2019,11,25,13,12,8.30
2019,11,25,13,13,8.30
2019,11,25,13,14,8.30
2019,11,25,13,15,8.30
2019,11,25,13,16,8.30
2019,11,25,13,17,8.30
2019,11,25,13,18,8.30
2019,11,25,13,19,8.30
2019,11,25,13,20,8.30
2019,11,25,13,21,8.20
2019,11,25,13,22,8.20
2019,11,25,13,23,8.20
2019,11,25,13,24,8.20
2019,11,25,13,25,8.20
2019,11,25,13,26,8.20
2019,11,25,13,27,8.10
2019,11,25,13,28,8.10
2019,11,25,13,29,8.10
2019,11,25,13,30,8.10
2019,11,25,13,31,8.10
2019,11,25,13,32,8.10
2019,11,25,13,33,8.10
2019,11,25,13,34,8.10
2019,11,25,13,35,8.10
2019,11,25,13,36,8.10
2019,11,25,13,37,8.10
2019,11,25,13,38,8.10
2019,11,25,13,39,8.10
2019,11,25,13,40,8.10
2019,11,25,13,41,8.10
2019,11,25,13,42,8.10
2019,11,25,13,43,8.10
2019,11,25,13,44,8.10
2019,11,25,13,45,8.10
2019,11,25,13,46,8.10
2019,11,25,13,47,8.10
2019,11,25,13,48,8.10
2019,11,25,13,49,8.10
2019,11,25,13,50,8.10
2019,11,25,13,51,8.10
2019,11,25,13,52,8.10
2019,11,25,13,53,8.10
2019,11,25,13,54,8.10
2019,11,25,13,55,8.10
2019,11,25,13,56,8.10
2019,11,25,13,57,8.10
2019,11,25,13,58,8.10
2019,11,25,13,59,8.10
2019,11,25,14,00,8.20
2019,11,25,14,01,8.20
2019,11,25,14,02,8.10
2019,11,25,14,03,8.10
2019,11,25,14,04,8.10
2019,11,25,14,05,8.10
2019,11,25,14,06,8.10
2019,11,25,14,07,8.10
2019,11,25,14,08,8.10
2019,11,25,14,09,8.10
2019,11,25,14,10,8.10
2019,11,25,14,11,8.00
2019,11,25,14,12,8.00
2019,11,25,14,13,8.00
2019,11,25,14,14,8.10
2019,11,25,14,15,8.10
2019,11,25,14,16,8.10
2019,11,25,14,17,8.10
2019,11,25,14,18,8.10
2019,11,25,14,19,8.10
2019,11,25,14,20,8.10
2019,11,25,14,21,8.10
2019,11,25,14,22,8.10
2019,11,25,14,23,8.10
2019,11,25,14,24,8.10
2019,11,25,14,25,8.10
2019,11,25,14,26,8.10
2019,11,25,14,27,8.10
2019,11,25,14,28,8.10
2019,11,25,14,29,8.10
2019,11,25,14,30,8.10
2019,11,25,14,31,8.10
2019,11,25,14,32,8.10
2019,11,25,14,33,8.20
2019,11,25,14,34,8.20
2019,11,25,14,35,8.20
2019,11,25,14,36,8.20
2019,11,25,14,37,8.20
2019,11,25,14,38,8.20
2019,11,25,14,39,8.30
2019,11,25,14,40,8.30
2019,11,25,14,41,8.30
2019,11,25,14,42,8.30
2019,11,25,14,43,8.30
2019,11,25,14,44,8.30
2019,11,25,14,45,8.30
2019,11,25,14,46,8.30
2019,11,25,14,47,8.40
2019,11,25,14,48,8.40
2019,11,25,14,49,8.40
2019,11,25,14,50,8.40
2019,11,25,14,51,8.50
2019,11,25,14,52,8.50
2019,11,25,14,53,8.50
2019,11,25,14,54,8.60
2019,11,25,14,55,8.50
2019,11,25,14,56,8.50
2019,11,25,14,57,8.50
2019,11,25,14,58,8.50
2019,11,25,14,59,8.50
2019,11,25,15,00,8.40
2019,11,25,15,01,8.40
2019,11,25,15,02,8.40
2019,11,25,15,03,8.40
2019,11,25,15,04,8.30
2019,11,25,15,05,8.30
2019,11,25,15,06,8.30
2019,11,25,15,07,8.30
2019,11,25,15,08,8.20
2019,11,25,15,09,8.20
2019,11,25,15,10,8.20
2019,11,25,15,11,8.20
2019,11,25,15,12,8.20
2019,11,25,15,13,8.20
2019,11,25,15,14,8.20
2019,11,25,15,15,8.20
2019,11,25,15,16,8.20
2019,11,25,15,17,8.20
2019,11,25,15,18,8.20
2019,11,25,15,19,8.30
2019,11,25,15,20,8.30
2019,11,25,15,21,8.30
2019,11,25,15,22,8.30
2019,11,25,15,23,8.30
2019,11,25,15,24,8.30
2019,11,25,15,25,8.30
2019,11,25,15,26,8.30
2019,11,25,15,27,8.30
2019,11,25,15,28,8.30
2019,11,25,15,29,8.30
2019,11,25,15,30,8.30
2019,11,25,15,31,8.30
2019,11,25,15,32,8.30
2019,11,25,15,33,8.30
2019,11,25,15,34,8.30
2019,11,25,15,35,8.30
2019,11,25,15,36,8.30
2019,11,25,15,37,8.30
2019,11,25,15,38,8.30
2019,11,25,15,39,8.30
2019,11,25,15,40,8.30
2019,11,25,15,41,8.30
2019,11,25,15,42,8.30
2019,11,25,15,43,8.30
2019,11,25,15,44,8.30
2019,11,25,15,45,8.30
2019,11,25,15,46,8.30
2019,11,25,15,47,8.30
2019,11,25,15,48,8.30
2019,11,25,15,49,8.30
2019,11,25,15,50,8.30
2019,11,25,15,51,8.30
2019,11,25,15,52,8.30
2019,11,25,15,53,8.30
2019,11,25,15,54,8.30
2019,11,25,15,55,8.30
2019,11,25,15,56,8.30
2019,11,25,15,57,8.30
2019,11,25,15,58,8.30
2019,11,25,15,59,8.30
2019,11,25,16,00,8.30
2019,11,25,16,01,8.30
2019,11,25,16,02,8.20
2019,11,25,16,03,8.20
2019,11,25,16,04,8.20
2019,11,25,16,05,8.20
2019,11,25,16,06,8.20
2019,11,25,16,07,8.10
2019,11,25,16,08,8.10
2019,11,25,16,09,8.10
2019,11,25,16,10,8.10
2019,11,25,16,11,8.10
2019,11,25,16,12,8.10
2019,11,25,16,13,8.10
2019,11,25,16,14,8.10
2019,11,25,16,15,8.10
2019,11,25,16,16,8.00
2019,11,25,16,17,8.00
2019,11,25,16,18,8.00
2019,11,25,16,19,8.00
2019,11,25,16,20,7.90
2019,11,25,16,21,7.90
2019,11,25,16,22,7.90
2019,11,25,16,23,7.90
2019,11,25,16,24,7.90
2019,11,25,16,25,7.90
2019,11,25,16,26,7.80
2019,11,25,16,27,7.80
2019,11,25,16,28,7.80
2019,11,25,16,29,7.80
2019,11,25,16,30,7.70
2019,11,25,16,31,7.70
2019,11,25,16,32,7.70
2019,11,25,16,33,7.70
2019,11,25,16,34,7.60
2019,11,25,16,35,7.60
2019,11,25,16,36,7.60
2019,11,25,16,37,7.60
2019,11,25,16,38,7.50
2019,11,25,16,39,7.50
2019,11,25,16,40,7.40
2019,11,25,16,41,7.40
2019,11,25,16,42,7.30
2019,11,25,16,43,7.30
2019,11,25,16,44,7.20
2019,11,25,16,45,7.10
2019,11,25,16,46,7.00
2019,11,25,16,47,7.00
2019,11,25,16,48,6.90
2019,11,25,16,49,6.80
2019,11,25,16,50,6.80
2019,11,25,16,51,6.80
2019,11,25,16,52,6.80
2019,11,25,16,53,6.80
2019,11,25,16,54,6.70
2019,11,25,16,55,6.70
2019,11,25,16,56,6.70
2019,11,25,16,57,6.70
2019,11,25,16,58,6.70
2019,11,25,16,59,6.70
2019,11,25,17,00,6.60
2019,11,25,17,01,6.60
2019,11,25,17,02,6.60
2019,11,25,17,03,6.60
2019,11,25,17,04,6.60
2019,11,25,17,05,6.60
2019,11,25,17,06,6.60
2019,11,25,17,07,6.60
2019,11,25,17,08,6.60
2019,11,25,17,09,6.60
2019,11,25,17,10,6.60
2019,11,25,17,11,6.50
2019,11,25,17,12,6.50
2019,11,25,17,13,6.50
2019,11,25,17,14,6.40
2019,11,25,17,15,6.40
2019,11,25,17,16,6.30
2019,11,25,17,17,6.30
2019,11,25,17,18,6.30
2019,11,25,17,19,6.20
2019,11,25,17,20,6.20
2019,11,25,17,21,6.20
2019,11,25,17,22,6.20
2019,11,25,17,23,6.20
2019,11,25,17,24,6.20
2019,11,25,17,25,6.20
2019,11,25,17,26,6.20
2019,11,25,17,27,6.20
2019,11,25,17,28,6.10
2019,11,25,17,29,6.10
2019,11,25,17,30,6.10
2019,11,25,17,31,6.10
2019,11,25,17,32,6.00
2019,11,25,17,33,6.00
2019,11,25,17,34,5.90
2019,11,25,17,35,5.90
2019,11,25,17,36,5.80
2019,11,25,17,37,5.80
2019,11,25,17,38,5.80
2019,11,25,17,39,5.70
2019,11,25,17,40,5.70
2019,11,25,17,41,5.60
2019,11,25,17,42,5.60
2019,11,25,17,43,5.50
2019,11,25,17,44,5.40
2019,11,25,17,45,5.30
2019,11,25,17,46,5.20
2019,11,25,17,47,5.10
2019,11,25,17,48,5.00
2019,11,25,17,49,5.00
2019,11,25,17,50,4.90
2019,11,25,17,51,4.80
2019,11,25,17,52,4.80
2019,11,25,17,53,4.70
2019,11,25,17,54,4.60
2019,11,25,17,55,4.60
2019,11,25,17,56,4.50
2019,11,25,17,57,4.40
2019,11,25,17,58,4.40
2019,11,25,17,59,4.40
2019,11,25,18,00,4.30
2019,11,25,18,01,4.30
2019,11,25,18,02,4.30
2019,11,25,18,03,4.30
2019,11,25,18,04,4.20
2019,11,25,18,05,4.20
2019,11,25,18,06,4.10
2019,11,25,18,07,4.10
2019,11,25,18,08,4.00
2019,11,25,18,09,4.00
2019,11,25,18,10,4.00
2019,11,25,18,11,4.00
2019,11,25,18,12,3.90
2019,11,25,18,13,3.90
2019,11,25,18,14,3.90
2019,11,25,18,15,3.90
2019,11,25,18,16,3.80
2019,11,25,18,17,3.80
2019,11,25,18,18,3.80
2019,11,25,18,19,3.70
2019,11,25,18,20,3.70
2019,11,25,18,21,3.60
2019,11,25,18,22,3.60
2019,11,25,18,23,3.50
2019,11,25,18,24,3.50
2019,11,25,18,25,3.40
2019,11,25,18,26,3.40
2019,11,25,18,27,3.40
2019,11,25,18,28,3.40
2019,11,25,18,29,3.40
2019,11,25,18,30,3.40
2019,11,25,18,31,3.40
2019,11,25,18,32,3.40
2019,11,25,18,33,3.40
2019,11,25,18,34,3.40
2019,11,25,18,35,3.30
2019,11,25,18,36,3.30
2019,11,25,18,37,3.30
2019,11,25,18,38,3.30
2019,11,25,18,39,3.30
2019,11,25,18,40,3.30
2019,11,25,18,41,3.30
2019,11,25,18,42,3.20
2019,11,25,18,43,3.20
2019,11,25,18,44,3.20
2019,11,25,18,45,3.20
2019,11,25,18,46,3.20
2019,11,25,18,47,3.10
2019,11,25,18,48,3.10
2019,11,25,18,49,3.10
2019,11,25,18,50,3.10
2019,11,25,18,51,3.10
2019,11,25,18,52,3.00
2019,11,25,18,53,3.00
2019,11,25,18,54,3.00
2019,11,25,18,55,3.00
2019,11,25,18,56,2.90
2019,11,25,18,57,2.90
2019,11,25,18,58,2.90
2019,11,25,18,59,2.90
2019,11,25,19,00,2.90
2019,11,25,19,01,2.80
2019,11,25,19,02,2.80
2019,11,25,19,03,2.80
2019,11,25,19,04,2.80
2019,11,25,19,05,2.80
2019,11,25,19,06,2.70
2019,11,25,19,07,2.70
2019,11,25,19,08,2.70
2019,11,25,19,09,2.70
2019,11,25,19,10,2.70
2019,11,25,19,11,2.70
2019,11,25,19,12,2.70
2019,11,25,19,13,2.60
2019,11,25,19,14,2.60
2019,11,25,19,15,2.60
2019,11,25,19,16,2.60
2019,11,25,19,17,2.60
2019,11,25,19,18,2.60
2019,11,25,19,19,2.50
2019,11,25,19,20,2.50
2019,11,25,19,21,2.50
2019,11,25,19,22,2.50
2019,11,25,19,23,2.40
2019,11,25,19,24,2.40
2019,11,25,19,25,2.40
2019,11,25,19,26,2.40
2019,11,25,19,27,2.30
2019,11,25,19,28,2.30
2019,11,25,19,29,2.30
2019,11,25,19,30,2.30
2019,11,25,19,31,2.30
2019,11,25,19,32,2.30
2019,11,25,19,33,2.30
2019,11,25,19,34,2.30
2019,11,25,19,35,2.30
2019,11,25,19,36,2.30
2019,11,25,19,37,2.30
2019,11,25,19,38,2.30
2019,11,25,19,39,2.30
2019,11,25,19,40,2.30
2019,11,25,19,41,2.30
2019,11,25,19,42,2.30
2019,11,25,19,43,2.30
2019,11,25,19,44,2.30
2019,11,25,19,45,2.30
2019,11,25,19,46,2.20
2019,11,25,19,47,2.20
2019,11,25,19,48,2.20
2019,11,25,19,49,2.20
2019,11,25,19,50,2.20
2019,11,25,19,51,2.10
2019,11,25,19,52,2.10
2019,11,25,19,53,2.00
2019,11,25,19,54,2.00
2019,11,25,19,55,1.90
2019,11,25,19,56,1.80
2019,11,25,19,57,1.80
2019,11,25,19,58,1.80
2019,11,25,19,59,1.80
2019,11,25,20,00,1.70
2019,11,25,20,01,1.70
2019,11,25,20,02,1.70
2019,11,25,20,03,1.60
2019,11,25,20,04,1.60
2019,11,25,20,05,1.60
2019,11,25,20,06,1.60
2019,11,25,20,07,1.50
2019,11,25,20,08,1.50
2019,11,25,20,09,1.50
2019,11,25,20,10,1.50
2019,11,25,20,11,1.50
2019,11,25,20,12,1.50
2019,11,25,20,13,1.40
2019,11,25,20,14,1.40
2019,11,25,20,15,1.40
2019,11,25,20,16,1.40
2019,11,25,20,17,1.40
2019,11,25,20,18,1.40
2019,11,25,20,19,1.40
2019,11,25,20,20,1.40
2019,11,25,20,21,1.40
2019,11,25,20,22,1.40
2019,11,25,20,23,1.40
2019,11,25,20,24,1.40
2019,11,25,20,25,1.30
2019,11,25,20,26,1.30
2019,11,25,20,27,1.30
2019,11,25,20,28,1.30
2019,11,25,20,29,1.30
2019,11,25,20,30,1.30
2019,11,25,20,31,1.30
2019,11,25,20,32,1.20
2019,11,25,20,33,1.20
2019,11,25,20,34,1.20
2019,11,25,20,35,1.20
2019,11,25,20,36,1.20
2019,11,25,20,37,1.20
2019,11,25,20,38,1.20
2019,11,25,20,39,1.20
2019,11,25,20,40,1.10
2019,11,25,20,41,1.10
2019,11,25,20,42,1.10
2019,11,25,20,43,1.10
2019,11,25,20,44,1.20
2019,11,25,20,45,1.10
2019,11,25,20,46,1.10
2019,11,25,20,47,1.10
2019,11,25,20,48,1.10
2019,11,25,20,49,1.10
2019,11,25,20,50,1.10
2019,11,25,20,51,1.10
2019,11,25,20,52,1.10
2019,11,25,20,53,1.00
2019,11,25,20,54,1.00
2019,11,25,20,55,1.00
2019,11,25,20,56,0.90
2019,11,25,20,57,0.90
2019,11,25,20,58,0.90
2019,11,25,20,59,0.90
2019,11,25,21,00,0.90
2019,11,25,21,01,0.90
2019,11,25,21,02,0.90
2019,11,25,21,03,0.90
2019,11,25,21,04,0.80
2019,11,25,21,05,0.80
2019,11,25,21,06,0.80
2019,11,25,21,07,0.80
2019,11,25,21,08,0.80
2019,11,25,21,09,0.80
2019,11,25,21,10,0.80
2019,11,25,21,11,0.70
2019,11,25,21,12,0.70
2019,11,25,21,13,0.60
2019,11,25,21,14,0.60
2019,11,25,21,15,0.50
2019,11,25,21,16,0.50
2019,11,25,21,17,0.40
2019,11,25,21,18,0.40
2019,11,25,21,19,0.40
2019,11,25,21,20,0.40
2019,11,25,21,21,0.30
2019,11,25,21,22,0.30
2019,11,25,21,23,0.30
2019,11,25,21,24,0.30
2019,11,25,21,25,0.40
2019,11,25,21,26,0.40
2019,11,25,21,27,0.40
2019,11,25,21,28,0.40
2019,11,25,21,29,0.40
2019,11,25,21,30,0.40
2019,11,25,21,31,0.40
2019,11,25,21,32,0.40
2019,11,25,21,33,0.40
2019,11,25,21,34,0.40
2019,11,25,21,35,0.40
2019,11,25,21,36,0.40
2019,11,25,21,37,0.40
2019,11,25,21,38,0.30
2019,11,25,21,39,0.30
2019,11,25,21,40,0.30
2019,11,25,21,41,0.30
2019,11,25,21,42,0.30
2019,11,25,21,43,0.30
2019,11,25,21,44,0.30
2019,11,25,21,45,0.30
2019,11,25,21,46,0.20
2019,11,25,21,47,0.20
2019,11,25,21,48,0.20
2019,11,25,21,49,0.20
2019,11,25,21,50,0.20
2019,11,25,21,51,0.20
2019,11,25,21,52,0.20
2019,11,25,21,53,0.20
2019,11,25,21,54,0.20
2019,11,25,21,55,0.20
2019,11,25,21,56,0.20
2019,11,25,21,57,0.20
2019,11,25,21,58,0.20
2019,11,25,21,59,0.20
2019,11,25,22,00,0.20
2019,11,25,22,01,0.20
2019,11,25,22,02,0.20
2019,11,25,22,03,0.20
2019,11,25,22,04,0.10
2019,11,25,22,05,0.10
2019,11,25,22,06,0.10
2019,11,25,22,07,0.00
2019,11,25,22,08,0.00
2019,11,25,22,09,-0.10
2019,11,25,22,10,-0.10
2019,11,25,22,11,-0.10
2019,11,25,22,12,-0.10
2019,11,25,22,13,-0.10
2019,11,25,22,14,-0.10
2019,11,25,22,15,-0.10
2019,11,25,22,16,-0.10
2019,11,25,22,17,-0.10
2019,11,25,22,18,-0.10
2019,11,25,22,19,-0.10
2019,11,25,22,20,-0.10
2019,11,25,22,21,-0.10
2019,11,25,22,22,-0.10
2019,11,25,22,23,-0.10
2019,11,25,22,24,0.00
2019,11,25,22,25,-0.10
2019,11,25,22,26,0.00
2019,11,25,22,27,0.00
2019,11,25,22,28,0.00
2019,11,25,22,29,-0.10
2019,11,25,22,30,-0.10
2019,11,25,22,31,-0.10
2019,11,25,22,32,-0.20
2019,11,25,22,33,-0.20
2019,11,25,22,34,-0.20
2019,11,25,22,35,-0.30